Погода в Шуйке

Россия / Республика Марий Эл     56°11′05″N   47°56′15″E
темп.,
°C
ветер,
м/с
пор.,
м/с
влажн.,
%
обл.,
%
осадки,
мм/ч
давл.,
гПа
погр.,
м
28 июня, вт
вт2800:00+11ссв26893 0.0 1016129
03:00+8ссв26935 0.0 1018123
06:00+11с37690 0.0 1018379
09:00+15с57483 0.0 10181657
12:00+16с684122 0.0 10192105
15:00+17с583944 0.0 10192238
18:00+16с484961 0.0 10192047
21:00+11ссв37715 0.0 1020152
29 июня, ср
ср2900:00+8ссз23845 0.0 102145
03:00+8сз257277 0.0 1021105
06:00+11сз37645 0.0 1021308
09:00+17ссз584267 0.0 10201328
12:00+19с463470 0.0 10191876
15:00+21с56345 0.0 10182096
18:00+19ссз36460 0.0 1017806
21:00+13сз2471100 0.0 101657
30 июня, чт
чт3000:00+12сз257284 0.0 101698
03:00+9зсз257896 0.0 101496
06:00+13сз386345 0.0 1014303
09:00+17сз474596 0.0 1012881
12:00+19с694435 0.0 10122415
15:00+18ссв793949 0.0 10132411
18:00+16ссв584988 0.0 10141978
21:00+9ссв247299 0.0 101673
1 июля, пт
пт100:00+8с39815 0.0 1017197
03:00+7с3108333 0.0 1017227
06:00+10с496539 0.0 1018427
09:00+16ссв584628 0.0 10181677
12:00+19с464192 0.0 10172131
15:00+20с463921 0.0 10172287
18:00+18с36495 0.0 10171047
21:00+13зсз22675 0.0 101723
2 июля, сб
сб200:00+11зсз23760 0.0 101748
03:00+10зсз23840 0.0 101642
06:00+15зсз246864 0.0 1016178
09:00+20з2450100 0.0 1015542
12:00+19зсз3760100 0.0 1014417
15:00+16юз259496 1.3 1013170
18:00+18з4790100 1.3 1012293
21:00+14сз2297100 1.8 101146